Vertical_Velocity
1 -7 -2 -1 -4 -0 0 -1 2 -1 -2 5 3 9 5 7 -0 7 3 5 2 1 3 2 2 2 1 -0 0 -1 1 -0 -0 1 -0 3 -2 -1 -3 -1 -2 -0 -4
1 -5 -1 0 -0 -2 -2 0 0 0 -1 -6 0 9 11 12 10 5 6 -0 3 1 4 9 8 3 1 -0 1 -1 -0 -1 1 0 -2 0 -1 -1 -4 -1 -3 -2 3
-1 -5 -1 1 3 -2 -3 1 -0 -1 3 -9 4 3 8 13 4 5 5 5 9 12 10 11 -0 -2 -1 1 0 -1 -1 -1 0 1 2 -3 0 -2 3 3 0 4 -1
-1 -4 -7 -0 -0 -1 -4 -4 -0 1 0 -1 8 1 11 9 10 4 1 5 1 4 2 -0 -0 -1 -1 2 2 0 2 -1 0 -1 -3 0 -1 0 0 -2 1 -5 1
-3 -3 -6 -2 0 -1 -3 -6 -1 -2 2 1 -1 1 -6 -0 7 5 3 1 2 1 3 0 -0 2 1 3 1 -1 2 -3 -1 -2 -3 -2 3 3 -3 -3 -1 -3 -3
-5 -1 -2 -5 -1 1 -2 -4 -4 -0 -1 -2 -2 -2 -5 2 -5 3 3 -1 0 1 0 1 3 1 4 -1 -0 0 -0 -2 -2 -3 -1 -2 -0 2 2 -5 1 10 9
-3 -3 -3 -4 -2 1 -0 -4 -2 -5 0 -1 -0 -1 -3 -1 3 4 2 2 1 7 0 1 -2 -0 -1 4 1 -1 -4 -2 3 -1 -2 -5 -3 -0 1 -7 6 10 3
0 -5 -2 -7 -3 -2 1 0 -4 0 -1 -3 2 -0 -3 -4 -4 -2 -2 -2 -2 3 3 2 1 1 -3 -3 -2 -4 -2 -3 2 1 2 1 6 -1 -5 6 2 3 1
-0 -5 -1 -5 -5 -4 -2 -2 -2 -1 0 0 1 1 -0 1 -0 -2 -1 -3 -2 -3 -3 -2 -3 0 3 -2 -0 1 0 -2 0 4 3 -1 8 1 -2 -0 -3 14 -4
1 -2 -2 -5 -3 -1 -4 -1 -3 -3 0 -2 -0 -1 0 -2 2 2 -2 -3 1 -1 -0 1 -4 -2 -4 -3 -4 0 -2 -2 5 2 -0 1 2 -6 -1 2 -0 -4 5
4 -1 1 -3 -2 -4 -5 -2 -2 -3 -2 -0 -2 -2 -1 0 -1 -3 -3 -0 -2 -2 -4 -1 -2 -0 -3 2 -0 1 2 -4 -2 -2 2 6 2 8 11 11 2 2 7
1 -1 -1 2 1 -3 -4 -6 -3 1 -3 -3 0 1 2 1 -0 -1 1 2 -4 -3 -4 -1 -2 2 -2 -3 -3 -5 1 -1 7 9 -8 1 1 4 7 2 8 12 9
2 -1 -0 1 2 1 -1 -2 -3 -2 -2 -2 -0 1 1 -1 -2 -3 0 0 -2 -1 -1 -2 0 -3 -1 -1 0 -1 -1 -3 1 -2 -2 5 -3 2 -1 2 -0 0 0
3 2 2 -0 0 -0 1 -1 -5 -3 -2 -2 -2 -0 -1 -3 -0 -1 -2 -3 -3 -3 -3 -2 0 1 -1 -2 -1 -1 -1 -4 1 1 1 2 -1 0 -3 -2 4 -1 1
2 2 -2 -1 0 1 1 1 -4 -0 -1 -2 -3 -3 -2 -1 -2 -2 -2 -2 -2 -2 -1 -1 -0 -1 -2 1 -1 -3 -3 -1 -1 -0 1 -1 0 -2 2 -5 1 0 -2
-5 -0 1 -5 -3 -0 2 1 -1 -5 -3 0 0 1 0 1 1 1 -1 -0 -1 -1 -2 0 0 -0 -1 -1 -2 -5 -3 0 -0 0 1 -1 -1 -0 0 -0 -5 -1 -3
1 -4 3 -1 -0 -4 12 3 0 -2 -1 -2 -2 -1 -1 -1 -0 -0 0 -0 -1 0 1 -2 -1 -2 -2 0 -1 -1 -3 -1 -0 0 -0 1 2 2 2 2 -0 -2 -0
0 1 7 -0 -1 -4 2 1 1 -0 -3 -2 -0 -2 -2 -3 -2 -2 -1 2 2 1 0 1 0 -1 -0 -0 0 1 1 0 0 0 -0 1 2 2 2 3 1 0 -1
-6 -3 3 7 6 -2 -1 -0 -1 1 1 -1 -2 -1 -0 0 0 0 8 2 2 1 1 0 2 2 3 4 2 2 1 1 1 1 1 1 1 1 0 -2 -1 -0 1
4 -1 -0 -1 -2 -3 -3 17 -2 -0 1 -0 -3 -2 -1 -0 0 2 2 2 0 1 1 -1 1 2 1 3 2 2 -0 -0 1 3 1 0 0 -0 1 2 0 -2 1
4 -2 1 4 2 -1 -3 -0 5 -0 2 2 3 4 1 0 -0 -0 2 3 2 1 -0 2 2 3 4 3 2 2 2 3 1 -1 -1 1 1 -0 -0 -2 -0 -1 -1
1 -1 1 -2 4 -1 0 18 -2 -2 -1 -0 1 -1 -2 -2 -2 -2 -2 -2 -1 0 1 1 0 0 2 3 2 1 1 1 2 0 -1 -0 1 2 3 3 3 1 -0
1 -1 -0 3 1 3 9 5 -0 2 0 3 0 -0 4 -0 -1 0 1 1 1 1 1 0 -0 -0 0 1 2 1 2 2 -0 1 2 2 2 -0 -2 1 -0 0 2
1 0 2 -0 -3 3 -2 1 -1 0 2 10 3 4 1 1 0 2 0 -0 1 -1 -1 -1 -1 -1 0 -0 -1 -0 3 2 1 1 1 1 -0 2 -3 -4 0 2 -0
4 0 2 1 1 -5 -3 1 3 1 2 2 1 -1 -3 0 -0 0 -2 -3 -1 -2 -3 -2 -1 -0 1 0 0 2 3 -1 1 -1 -0 -1 2 -1 -3 -2 -3 0 2
7 -3 -0 1 12 9 6 4 -4 3 1 -4 3 3 -3 -1 1 0 -0 2 2 0 -0 1 1 1 -1 -0 1 -0 0 1 1 -3 4 2 1 0 1 -0 -0 0 -5
Height
5728 5726 5721 5718 5712 5707 5705 5706 5707 5707 5705 5701 5698 5697 5702 5711 5722 5728 5734 5738 5742 5747 5752 5757 5760 5765 5767 5768 5769 5769 5770 5770 5770 5769 5768 5769 5770 5772 5774 5775 5777 5777 5777
5725 5723 5719 5717 5711 5707 5704 5703 5706 5706 5705 5704 5700 5701 5707 5714 5719 5724 5729 5734 5740 5744 5749 5754 5757 5759 5761 5762 5763 5764 5765 5764 5764 5764 5763 5765 5767 5768 5769 5771 5771 5771 5772
5723 5721 5717 5716 5712 5707 5706 5704 5704 5705 5705 5707 5704 5704 5709 5712 5718 5722 5727 5732 5738 5742 5746 5750 5751 5754 5755 5757 5758 5759 5759 5759 5759 5759 5760 5761 5763 5763 5765 5766 5766 5765 5765
5721 5720 5716 5714 5713 5709 5706 5705 5703 5703 5705 5707 5707 5709 5710 5713 5717 5721 5725 5730 5734 5738 5741 5744 5746 5748 5750 5752 5752 5753 5753 5754 5753 5753 5755 5757 5759 5760 5761 5760 5760 5760 5759
5717 5717 5715 5713 5712 5710 5707 5706 5704 5703 5703 5705 5708 5709 5712 5713 5716 5720 5724 5728 5731 5733 5736 5738 5741 5743 5744 5744 5746 5747 5748 5748 5748 5749 5749 5752 5753 5754 5754 5755 5753 5752 5751
5714 5715 5714 5712 5710 5709 5708 5707 5706 5704 5703 5704 5707 5708 5709 5712 5715 5718 5721 5723 5727 5730 5732 5734 5735 5736 5739 5740 5742 5743 5744 5746 5745 5745 5746 5748 5747 5748 5749 5747 5745 5745 5742
5710 5711 5711 5710 5710 5708 5707 5706 5706 5707 5706 5706 5705 5706 5707 5710 5712 5714 5716 5719 5722 5724 5727 5729 5732 5733 5735 5737 5739 5740 5741 5740 5741 5741 5741 5740 5740 5741 5740 5738 5737 5733 5731
5706 5708 5708 5707 5708 5707 5707 5705 5706 5706 5706 5707 5707 5707 5707 5709 5712 5714 5716 5717 5719 5722 5726 5726 5728 5730 5731 5733 5734 5734 5735 5734 5735 5733 5733 5733 5735 5733 5730 5728 5726 5724 5722
5701 5703 5704 5704 5704 5705 5705 5705 5704 5705 5706 5706 5707 5707 5708 5709 5710 5711 5714 5716 5718 5720 5721 5724 5727 5729 5730 5729 5729 5730 5731 5729 5727 5727 5727 5726 5726 5725 5721 5718 5716 5713 5710
5697 5698 5700 5700 5701 5702 5702 5702 5702 5702 5703 5703 5704 5705 5706 5708 5709 5710 5711 5713 5716 5717 5719 5720 5722 5723 5723 5723 5723 5724 5723 5720 5720 5720 5719 5717 5716 5713 5709 5707 5704 5701 5696
5692 5693 5694 5696 5697 5699 5699 5697 5698 5698 5699 5701 5702 5703 5705 5706 5708 5709 5711 5711 5712 5713 5713 5713 5715 5716 5717 5717 5715 5714 5714 5713 5713 5711 5709 5708 5704 5699 5694 5693 5691 5689 5685
5685 5687 5689 5691 5692 5693 5695 5695 5694 5693 5694 5696 5699 5700 5701 5702 5703 5703 5703 5705 5706 5707 5707 5708 5709 5709 5709 5708 5707 5706 5707 5706 5704 5702 5699 5697 5694 5689 5686 5682 5679 5679 5674
5680 5682 5684 5686 5687 5687 5689 5691 5690 5689 5689 5690 5692 5694 5696 5697 5697 5697 5697 5698 5699 5700 5701 5700 5700 5701 5701 5703 5702 5700 5697 5694 5694 5691 5689 5688 5684 5680 5676 5672 5668 5665 5661
5675 5677 5678 5681 5682 5683 5683 5684 5685 5684 5683 5685 5686 5688 5689 5690 5692 5692 5692 5693 5693 5694 5694 5694 5695 5696 5695 5694 5693 5689 5687 5685 5684 5682 5679 5676 5672 5668 5663 5659 5656 5652 5649
5669 5671 5673 5676 5678 5679 5679 5679 5680 5679 5679 5680 5681 5683 5684 5685 5686 5687 5688 5688 5688 5688 5688 5688 5689 5688 5686 5684 5682 5681 5678 5676 5673 5671 5668 5664 5660 5656 5652 5647 5643 5639 5635
5661 5665 5668 5670 5672 5673 5673 5674 5673 5675 5674 5674 5675 5677 5679 5680 5681 5681 5682 5682 5682 5681 5681 5680 5680 5678 5676 5674 5672 5669 5666 5665 5662 5659 5654 5650 5647 5643 5638 5633 5628 5625 5619
5655 5657 5659 5662 5664 5666 5666 5668 5668 5668 5668 5669 5669 5670 5671 5672 5673 5674 5674 5674 5674 5673 5673 5671 5670 5668 5666 5665 5661 5657 5653 5650 5647 5643 5641 5637 5633 5628 5623 5617 5612 5607 5603
5645 5648 5650 5653 5656 5659 5661 5662 5663 5663 5662 5662 5663 5664 5664 5664 5665 5665 5665 5666 5665 5664 5662 5661 5659 5657 5655 5652 5649 5645 5641 5637 5633 5629 5624 5619 5614 5609 5605 5599 5593 5588 5583
5634 5639 5642 5646 5648 5652 5653 5654 5655 5656 5656 5656 5656 5657 5657 5657 5657 5656 5656 5655 5654 5653 5652 5650 5648 5646 5643 5640 5636 5632 5628 5624 5619 5614 5609 5603 5598 5592 5586 5581 5575 5569 5563
5625 5629 5633 5636 5639 5642 5644 5645 5647 5648 5649 5649 5650 5650 5649 5649 5649 5648 5647 5646 5645 5643 5641 5638 5636 5633 5629 5626 5622 5618 5613 5608 5603 5597 5591 5585 5580 5574 5568 5562 5556 5549 5543
5616 5619 5623 5627 5630 5633 5635 5636 5639 5640 5641 5641 5642 5642 5641 5641 5640 5639 5637 5635 5633 5631 5628 5626 5623 5620 5616 5612 5607 5602 5597 5591 5585 5579 5573 5567 5561 5555 5548 5542 5535 5528 5522
5607 5611 5614 5617 5621 5623 5625 5627 5630 5632 5633 5632 5632 5633 5632 5631 5629 5628 5626 5625 5622 5620 5616 5612 5608 5604 5600 5595 5590 5585 5579 5573 5567 5561 5555 5548 5542 5535 5529 5521 5514 5507 5499
5596 5600 5604 5608 5611 5615 5617 5618 5621 5623 5623 5624 5623 5623 5622 5620 5618 5616 5613 5611 5608 5606 5602 5598 5594 5589 5585 5580 5574 5568 5562 5556 5550 5544 5537 5530 5524 5516 5508 5501 5492 5483 5474
5586 5589 5593 5597 5600 5604 5606 5609 5610 5612 5612 5613 5613 5613 5610 5608 5605 5603 5601 5599 5596 5593 5588 5584 5579 5574 5569 5564 5558 5552 5545 5539 5533 5526 5519 5511 5503 5495 5485 5476 5468 5458 5448
5577 5579 5582 5586 5589 5591 5594 5597 5599 5600 5602 5602 5601 5599 5598 5595 5592 5591 5589 5585 5582 5578 5573 5568 5564 5560 5554 5548 5542 5536 5529 5522 5516 5508 5499 5491 5482 5471 5461 5451 5440 5430 5419
5566 5568 5571 5574 5578 5581 5585 5587 5589 5591 5591 5589 5587 5587 5585 5582 5580 5577 5574 5570 5566 5562 5558 5554 5549 5544 5538 5532 5526 5520 5512 5505 5496 5487 5478 5468 5458 5447 5435 5423 5411 5397 5383